Regional Weather Roundup
Issued by NWS

Home | Current Version | Previous Version | Text Only | Print | Product List | Glossary Off
Versions: 1 2 3 4 5 6 7 8 9 10 11 12 13 14 15 16 17 18 19 20 21 22 23 24 25 26 27 28 29 30 31 32 33 34 35 36 37 38 39 40 41 42 43 44 45 46 47 48 49 50

000
ASUS43 KIND 300409
RWRIN

WEATHER ROUNDUP FOR INDIANA
NATIONAL WEATHER SERVICE INDIANAPOLIS IN
1100 PM EST THU JAN 29 2015

NOTE: "FAIR" INDICATES FEW OR NO CLOUDS BELOW 12,000 FEET WITH NO
SIGNIFICANT WEATHER AND/OR OBSTRUCTIONS TO VISIBILITY.

* - STATION DOES NOT REPORT WEATHER SUCH AS PRECIPITATION OR FOG.

+ - STATION NOT QUALITY CONTROLLED BY THE NATIONAL WEATHER SERVICE.
    USE DATA WITH CAUTION...ESPECIALLY DEWPOINT AND RELATIVE
    HUMIDITY OBSERVATIONS.

INZ001>003-010>013-019-020-300500-
NORTHWEST INDIANA

CITY           SKY/WX    TMP DP  RH WIND       PRES   REMARKS
GARY /AIRPORT/ CLOUDY    37  15  40 NW17G25   30.24R
KNOX *+        CLOUDY    32  12  43 NW15G23   30.19R WCI  22
LA PORTE +     CLOUDY    35  24  64 N17G26    30.19R WCI  24
MICHIGAN CITY+ CLOUDY    34  16  47 N16G25    30.21R WCI  23
MONTICELLO +   CLOUDY    33  28  84 NW8       30.21R WCI  25
RENSSELAER +   CLOUDY    34  28  80 NW9       30.23R WCI  26
VALPARAISO     CLOUDY    33  21  61 NW12G21   30.21R WCI  24

$$

LMZ046-743>745-300500-
SOUTHERN LAKE MICHIGAN

STATION/POSITION TIME  TEMP WIND        PRES
                       AIR  DIR/SP/G
                 (UTC) (F)  (DEG/KT/KT) (MB)
MICHIGAN CITY    0400   34  330/ 25/ 29   N/A

$$

INZ004-005-014>016-021>024-300500-
NORTH CENTRAL INDIANA

CITY           SKY/WX    TMP DP  RH WIND       PRES   REMARKS
GOSHEN         CLOUDY    33  26  75 NW15      30.13R WCI  23
LOGANSPORT +   CLOUDY    32  28  86 NW10      30.20R WCI  24
PERU/GRISSOM   CLOUDY    33  28  83 NW10      30.18R WCI  24
ROCHESTER +    CLOUDY    34  30  86 W12       30.18R WCI  25
SOUTH BEND     CLOUDY    34  24  67 NW20G29   30.17R WCI  23
WARSAW +       CLOUDY    32  28  86 NW12      30.14S WCI  23

$$

INZ006>009-017-018-025>027-300500-
NORTHEAST INDIANA

CITY           SKY/WX    TMP DP  RH WIND       PRES   REMARKS
ANGOLA *+      CLOUDY    30  28  93 NW9       30.09R WCI  22
AUBURN +       MIX PCPN  32  28  86 W7        30.12R WCI  26
FORT WAYNE     FLURRIES  32  28  85 W12       30.14R WCI  23
HUNTINGTON +   CLOUDY    32  25  76 W5        30.15R WCI  27

$$

INZ028-029-035-036-043>045-051>053-300500-
WEST CENTRAL INDIANA

CITY           SKY/WX    TMP DP  RH WIND       PRES   REMARKS
CRAWFORDSVL +  CLOUDY    32  26  78 W12       30.24R WCI  23
GREENCASTLE +  CLOUDY    34  27  75 NW6       30.25R WCI  29
LAFAYETTE      CLOUDY    33  27  78 NW10      30.24R WCI  25
TERRE HAUTE    CLOUDY    35  29  78 NW12G20   30.28R WCI  27

$$

INZ030>032-037>040-046>048-054>057-064-065-300500-
CENTRAL INDIANA

CITY           SKY/WX    TMP DP  RH WIND       PRES   REMARKS
CP ATTERBURY + CLOUDY    34  30  86 NW7       30.23R WCI  28
GREENWOOD *+   CLOUDY    34  27  75 NW9G17    30.22  WCI  26
INDIANAPOLIS   CLOUDY    31  27  85 NW12      30.23R WCI  22
-EAGLE CREEK   CLOUDY    33  27  78 NW14      30.21S WCI  23
KOKOMO *+      CLOUDY    32  28  86 NW14      30.18S WCI  22
MARION +       CLOUDY    32  28  86 NW10      30.18R WCI  24
MT COMFORT *+  CLOUDY    32  28  86 NW13G18   30.21R WCI  22
SHELBYVILLE    CLOUDY    35  28  75 NW13      30.20S WCI  26
ZIONSVILLE +   CLOUDY    32  28  85 NW8       30.21S WCI  25

$$

INZ033-034-041-042-049-050-058-059-300500-
EAST CENTRAL INDIANA

CITY           SKY/WX    TMP DP  RH WIND       PRES   REMARKS
MUNCIE         CLOUDY    32  28  85 NW13      30.16R WCI  22

$$

INZ060-061-067>069-081>083-085>088-300500-
SOUTHWEST INDIANA

CITY           SKY/WX    TMP DP  RH WIND       PRES   REMARKS
EVANSVILLE     CLOUDY    37  31  78 NW9       30.34R
HUNTINGBURG *+ CLOUDY    36  30  80 NW14G25   30.31R
WASHINGTON +   LGT RAIN  35  32  89 NW16      30.30R WCI  25

$$

INZ062-063-066-070>080-084-089>092-300500-
SOUTH CENTRAL AND SOUTHEAST INDIANA

CITY           SKY/WX    TMP DP  RH WIND       PRES   REMARKS
BLOOMINGTON    CLOUDY    35  27  72 NW6       30.25R WCI  30
NORTH VERNON + CLOUDY    34  34 100 W9        30.23R WCI  26
SEYMOUR +      CLOUDY    36  28  75 NW7       30.25R

$$




USA.gov is the U.S. government's official web portal to all federal, state and local government web resources and services.